Helicity
132 123 115 135 114 149 168 169 172 175 164 183 174 185 182 181 172 151 123 91 80 71 57 60 59 63 30 54 33 80 85 21 25 67 63 64 78 95 97 79 71 71 77 94 75 25 35
128 131 117 107 116 142 158 159 152 159 164 175 181 193 181 169 151 133 124 105 92 80 72 73 75 53 33 56 43 88 137 105 96 108 91 92 120 143 100 90 89 121 93 58 29 25 64
133 145 138 117 129 121 132 130 141 149 162 170 163 166 167 163 150 128 108 104 103 82 80 91 92 54 56 70 71 63 50 57 114 134 123 118 150 155 161 114 127 75 72 82 73 84 105
138 138 137 142 142 144 134 141 138 127 147 141 158 160 157 143 127 111 101 81 71 68 82 115 102 74 51 58 49 75 78 61 23 47 55 48 120 131 122 108 149 122 128 112 51 152 121
118 126 120 138 129 131 141 141 133 129 127 133 159 141 139 140 132 116 119 117 103 127 123 95 98 93 47 33 84 77 78 50 48 50 40 48 145 161 149 159 185 174 124 93 153 101 132
101 98 93 101 122 115 108 132 128 118 126 133 145 142 134 131 119 116 120 105 101 111 103 97 136 124 46 83 79 34 37 68 78 96 122 138 212 212 211 223 155 127 125 112 139 131 140
66 77 80 88 92 106 103 121 144 114 131 137 139 132 138 128 118 96 108 86 112 89 84 98 105 139 93 132 179 104 122 145 135 155 134 151 230 211 91 142 184 191 176 155 153 127 149
81 79 65 65 70 80 97 112 128 132 111 122 129 127 129 136 104 56 79 86 103 96 93 66 72 132 34 154 151 67 190 197 215 203 195 243 213 96 151 170 182 171 123 130 131 70 130
98 106 103 94 78 65 73 101 123 120 97 105 107 108 114 115 104 83 73 72 107 154 73 50 122 126 118 139 183 48 210 301 309 230 186 225 153 103 137 133 148 123 147 113 134 108 101
86 79 97 102 86 71 74 87 108 106 97 106 106 112 116 113 118 66 84 86 70 52 94 1 42 93 67 56 93 45 79 284 200 129 151 133 71 82 142 172 105 126 82 103 114 118 133
77 89 83 88 92 83 85 79 76 91 88 91 90 94 91 89 121 84 88 78 82 68 188 101 118 60 79 48 81 58 55 148 168 204 186 137 103 118 154 79 102 136 88 99 93 125 114
88 84 85 88 91 106 99 75 71 77 83 79 80 82 90 109 80 51 136 102 104 246 230 175 119 90 106 47 93 117 114 65 96 111 126 124 116 109 74 86 96 95 123 152 147 118 196
77 82 87 98 99 83 100 87 75 84 90 89 86 79 95 114 99 74 99 141 277 325 255 154 154 151 95 115 98 97 126 104 92 128 114 122 73 90 117 130 59 118 120 175 200 202 188
78 60 68 88 98 110 100 92 94 98 91 97 98 97 127 111 81 120 131 259 311 251 260 256 215 169 155 140 119 114 145 136 85 133 154 121 139 67 70 111 70 86 141 161 196 194 132
77 90 83 67 65 109 102 88 96 107 107 92 132 181 143 109 63 98 184 316 284 220 207 224 216 183 147 118 114 85 103 113 120 140 140 79 74 53 69 101 92 73 126 107 167 158 162
66 80 105 93 71 100 76 83 93 106 112 137 184 156 126 88 131 140 230 231 229 195 269 244 158 175 153 139 166 176 171 150 131 118 187 140 141 159 149 173 147 121 107 150 193 144 130
74 64 86 89 97 84 68 50 64 76 84 142 209 168 110 119 174 182 278 258 202 165 233 223 187 192 176 144 147 138 157 182 149 169 154 162 167 173 200 153 189 205 214 211 168 224 209
76 77 79 88 80 74 79 63 79 64 115 191 241 246 143 137 245 272 227 257 151 159 91 118 160 174 146 121 76 81 93 84 96 109 162 180 179 145 117 112 157 137 167 244 237 189 268
70 74 86 91 77 80 93 98 101 96 141 273 280 212 159 162 309 317 189 102 86 162 136 138 138 75 86 85 114 85 71 77 75 125 87 106 150 154 95 132 150 175 230 231 238 269 308
73 56 61 74 87 98 90 114 113 82 87 200 250 239 250 215 227 269 275 140 135 129 90 85 187 128 98 86 104 99 93 81 105 104 129 172 169 142 135 99 115 182 191 233 267 293 323
66 61 58 71 71 85 95 103 100 91 79 224 175 296 277 305 238 243 256 244 155 128 139 124 136 99 136 100 81 85 83 113 116 125 126 154 130 150 148 136 147 128 193 230 224 285 326
63 64 86 93 92 104 100 104 96 90 81 230 307 323 258 293 251 183 177 224 137 98 236 167 163 149 111 97 100 83 76 102 113 127 184 214 188 201 158 170 158 96 150 186 179 177 143
56 63 72 71 88 89 86 85 95 98 177 262 229 195 206 249 232 250 181 112 140 130 134 105 107 126 100 60 70 57 95 97 153 118 121 209 285 230 178 104 108 120 224 173 174 220 196
34 43 54 57 63 65 68 89 85 82 137 263 250 224 202 208 173 181 119 95 87 104 110 110 95 94 59 112 129 158 190 182 160 162 189 218 305 221 191 156 104 185 213 172 158 170 191
31 28 33 38 41 43 51 57 67 77 93 237 228 215 167 179 133 87 85 92 85 83 69 83 78 73 85 166 157 133 141 145 130 157 221 310 315 190 133 117 150 211 164 139 141 108 121
32 34 29 30 37 39 41 47 55 63 70 194 166 192 161 137 67 25 59 88 139 143 131 81 28 35 143 183 198 158 133 110 112 176 116 184 161 163 181 139 108 112 155 180 146 96 124
14 22 29 32 38 43 43 42 47 44 46 150 148 136 123 34 65 46 57 54 92 99 58 62 92 113 147 317 187 143 150 150 180 167 272 263 241 197 224 190 178 146 175 148 180 76 83
12 12 17 23 30 40 43 43 34 34 30 95 111 115 133 55 -10 84 52 30 46 84 85 51 69 113 102 258 234 158 121 138 199 193 196 224 228 225 251 226 131 152 140 85 69 92 108
-10 -18 -19 8 23 27 32 29 29 26 33 68 109 132 132 96 -20 -26 -1 -4 -4 53 111 89 100 72 134 194 286 263 182 205 221 196 226 198 182 199 154 111 115 108 81 96 86 94 107
Wind_Speed
41 40 40 39 40 41 41 42 44 46 46 48 49 50 52 56 58 60 61 62 62 60 58 55 56 60 53 51 49 37 47 48 45 39 38 40 41 40 44 50 58 61 58 59 65 73 72
45 42 44 41 40 41 42 40 42 41 43 46 48 49 51 53 54 57 59 60 59 58 53 51 52 52 51 61 38 40 40 44 41 39 41 37 40 49 50 51 59 58 69 72 72 82 78
47 43 42 40 39 40 44 40 38 37 39 41 45 48 52 52 53 54 55 55 56 54 50 47 49 50 54 55 44 52 63 54 45 43 46 43 45 50 56 62 57 71 79 78 73 73 73
50 46 45 44 44 42 41 41 37 38 38 40 43 46 50 51 51 54 54 53 51 49 47 44 48 50 60 52 56 58 48 50 42 37 37 47 49 53 55 59 67 77 76 78 64 63 70
50 47 45 41 45 44 42 42 40 39 40 39 41 45 48 49 50 53 52 50 48 43 42 42 48 51 64 52 44 44 32 42 39 37 38 39 45 53 53 62 72 62 76 74 74 68 71
49 48 46 44 42 42 41 41 41 40 36 39 45 46 47 47 50 47 46 44 42 42 42 42 45 58 49 43 39 44 33 37 42 34 38 38 44 50 51 54 75 73 72 68 68 66 85
45 46 44 44 41 40 40 40 42 38 36 41 44 45 46 47 46 41 42 48 53 55 47 51 50 53 55 51 53 46 41 37 39 40 45 41 49 55 51 45 55 69 73 76 71 72 80
52 50 48 45 43 41 38 41 39 38 38 40 43 44 46 46 43 38 42 47 47 53 76 56 57 59 59 63 67 60 44 43 42 51 46 52 60 50 49 52 59 65 75 76 70 64 69
58 54 47 48 47 42 40 40 42 42 42 41 43 44 45 44 42 40 44 43 40 56 67 74 55 58 56 39 57 63 42 43 49 48 48 53 49 41 44 49 54 58 67 76 77 71 70
59 59 54 51 52 49 43 40 42 44 42 43 44 44 44 42 41 41 44 44 39 44 75 73 55 46 35 30 44 33 20 30 37 39 40 53 45 46 48 53 54 68 57 69 81 83 94
57 56 55 51 51 49 47 46 46 47 44 43 43 42 42 39 41 38 43 35 29 38 83 51 43 27 23 26 35 36 20 26 33 35 37 50 52 50 49 51 48 64 59 73 82 78 83
63 59 55 50 49 48 49 50 48 48 46 45 43 40 40 42 43 39 41 26 32 55 79 57 37 38 33 34 40 31 31 32 32 42 49 55 46 50 51 53 53 52 62 60 60 70 83
66 62 56 52 52 51 47 46 48 44 42 46 45 43 41 40 45 41 34 30 55 73 52 58 55 45 44 45 43 36 36 39 42 49 53 50 52 49 45 55 55 47 51 65 68 64 71
68 63 61 58 57 54 54 52 50 46 44 45 44 43 45 45 44 39 31 41 74 68 66 47 43 43 51 45 53 48 50 51 44 47 54 56 61 41 37 38 44 41 41 52 70 67 70
70 68 65 61 58 56 55 56 57 47 45 43 42 47 52 49 42 34 41 62 69 61 56 57 59 60 58 53 53 48 53 54 48 39 48 48 52 43 39 36 32 42 46 44 53 54 66
71 70 68 65 62 60 58 54 52 46 44 37 44 53 59 43 34 37 52 69 65 58 55 55 61 55 65 56 56 51 53 52 54 48 44 53 65 46 42 37 38 37 30 47 46 63 69
77 75 71 66 61 57 54 53 48 43 40 32 44 58 49 35 26 47 68 70 73 70 58 63 66 65 61 62 59 60 54 50 44 48 42 51 53 55 45 45 44 42 42 43 42 45 60
77 73 69 63 57 54 53 48 43 39 33 34 47 64 43 26 50 56 70 65 65 69 59 76 72 69 72 72 76 70 64 56 47 42 44 43 46 55 56 53 50 44 45 40 49 55 52
77 72 69 64 61 56 51 45 40 37 32 37 52 55 42 41 64 64 67 73 77 75 62 68 68 61 63 78 78 73 76 61 49 47 44 40 50 61 62 49 44 49 46 45 52 54 52
78 74 70 65 61 60 55 49 45 42 38 39 50 61 55 54 59 62 67 76 80 74 82 81 67 62 71 79 67 68 63 58 49 51 49 44 52 53 58 54 44 49 48 47 49 55 65
76 75 72 69 64 60 57 53 50 46 44 44 57 65 55 61 70 68 66 72 78 83 70 59 75 85 77 78 74 75 70 66 61 53 48 46 60 57 59 55 54 61 57 52 52 50 66
80 77 74 71 67 63 58 56 54 51 46 54 64 65 59 72 64 71 75 75 81 79 73 75 80 72 68 82 82 88 71 65 64 55 53 49 62 58 67 62 63 74 59 48 55 55 48
74 72 71 70 68 66 63 60 58 54 46 56 55 56 59 69 68 68 76 78 77 80 76 75 77 76 79 86 74 77 67 62 55 55 54 53 55 57 66 55 58 70 45 47 53 50 46
68 68 68 66 63 63 62 60 57 55 54 57 56 55 67 80 72 74 71 72 77 75 85 76 72 79 91 61 55 57 58 62 62 56 52 54 50 52 56 50 58 57 47 47 45 42 41
65 64 64 63 63 62 62 61 60 59 56 60 55 53 61 80 74 77 74 70 69 71 79 85 82 71 53 57 62 64 67 69 69 64 56 48 44 53 54 55 64 53 42 41 42 43 33
65 64 62 61 59 59 58 56 55 54 53 55 61 55 51 58 71 65 63 53 55 51 61 72 78 71 52 52 53 63 67 59 53 47 36 37 39 48 49 60 62 49 34 31 38 55 30
62 61 61 61 63 62 60 57 54 52 51 53 57 55 60 69 58 51 64 69 54 50 56 52 57 53 50 54 57 55 61 46 48 43 43 43 42 46 54 60 58 37 27 33 41 43 27
58 60 61 60 60 59 57 55 54 49 47 47 55 49 55 76 83 56 70 76 68 71 66 53 51 55 53 49 49 46 46 43 44 45 46 43 42 49 49 52 63 24 27 27 29 30 32
82 86 88 83 65 63 61 57 55 52 49 43 56 51 57 76 68 64 79 85 79 65 59 49 58 54 52 57 53 40 45 44 43 55 43 48 41 41 36 34 30 25 28 27 29 33 35
Wind_Direction
286 288 291 295 296 299 302 303 303 304 306 307 308 308 309 308 310 311 312 311 312 314 314 318 322 324 327 320 314 326 315 314 317 320 321 316 313 313 311 307 303 297 303 306 303 300 302
285 287 288 290 293 298 300 302 304 304 305 307 309 311 312 310 314 312 312 312 313 313 315 318 321 325 322 311 326 325 326 319 313 312 314 316 310 308 308 307 301 305 303 302 304 299 300
283 287 288 288 290 295 297 300 301 305 307 306 309 310 311 311 313 313 314 314 315 315 316 318 320 321 313 309 317 309 301 303 305 304 303 306 309 306 307 304 305 300 298 301 303 302 303
281 285 287 289 290 291 296 299 299 300 304 305 308 312 312 313 313 312 313 314 316 316 316 318 319 317 307 313 311 302 310 308 298 301 305 303 304 305 302 304 305 300 300 300 303 306 306
282 285 286 289 289 291 293 295 296 297 299 302 307 310 312 313 314 314 314 315 317 318 318 319 316 314 309 312 315 314 322 315 312 304 305 304 306 303 305 302 302 305 298 299 303 307 302
280 282 284 286 288 290 291 293 293 294 297 302 304 308 310 313 311 315 317 320 321 317 316 317 313 308 309 310 317 317 325 319 311 307 307 305 303 299 307 300 295 300 302 304 305 309 302
277 279 281 282 284 286 289 291 293 292 296 300 304 307 310 310 311 315 317 313 307 304 304 297 302 300 306 310 309 310 316 313 311 305 301 302 294 292 296 295 300 301 300 300 305 309 306
274 275 276 277 279 282 287 287 289 292 295 300 303 306 308 309 312 311 312 307 307 309 296 296 292 290 293 300 299 297 307 300 299 296 299 299 292 295 298 298 299 299 299 300 307 310 308
273 275 275 278 276 277 281 284 286 289 290 294 299 303 305 307 310 308 305 303 312 316 299 298 299 297 298 294 294 296 288 293 298 293 292 290 302 310 300 298 301 300 299 301 304 310 309
271 272 272 274 276 275 275 278 284 288 287 290 293 298 302 305 304 306 305 311 302 314 297 298 302 308 310 311 308 317 296 289 299 298 300 300 303 296 297 298 301 299 305 303 304 308 304
269 268 271 272 272 271 273 278 281 283 283 286 288 293 298 301 303 302 308 315 316 318 289 303 304 328 324 316 319 323 332 302 288 297 304 302 308 307 298 298 302 302 305 302 304 304 307
267 268 267 266 269 270 273 276 278 278 278 281 283 287 293 295 293 296 310 312 309 290 282 294 301 300 303 305 311 322 318 319 310 298 297 297 302 304 304 306 304 308 308 309 309 307 303
268 265 261 263 267 271 270 273 276 275 277 280 280 280 284 289 290 297 297 292 283 275 296 291 289 290 289 296 300 303 304 299 301 304 303 308 300 301 299 302 308 305 307 306 307 308 307
266 263 262 263 266 267 268 270 271 272 274 279 278 278 282 283 287 292 281 278 272 280 274 301 300 297 285 294 293 295 295 291 291 298 305 305 305 313 317 304 309 307 303 303 307 309 311
261 261 262 263 264 265 266 270 267 266 270 275 279 279 279 280 277 279 264 267 271 277 287 288 285 287 289 290 290 293 286 289 290 282 294 304 304 311 312 314 314 314 309 310 306 312 313
262 261 261 263 264 263 264 267 265 260 265 269 274 278 276 278 269 264 261 264 272 275 286 289 282 287 287 289 293 291 290 295 285 283 283 298 299 305 307 311 311 307 317 314 314 310 312
262 261 262 261 261 258 259 263 262 256 258 260 273 275 281 267 261 255 256 266 273 272 281 280 281 283 285 288 289 291 293 302 299 296 289 290 291 299 303 296 294 305 303 311 313 309 311
261 261 260 258 255 254 257 258 256 251 250 257 267 269 279 254 253 254 256 262 274 274 277 273 279 281 280 282 284 286 286 291 299 298 293 298 301 297 299 302 301 296 298 297 299 308 306
260 258 258 256 253 253 252 251 249 243 238 259 266 268 278 258 256 254 261 264 266 273 277 276 278 280 281 279 280 281 283 291 288 287 291 293 296 297 305 302 297 295 298 301 302 303 296
259 256 254 254 253 252 249 247 244 241 236 255 266 265 265 260 262 260 257 264 268 271 270 270 277 280 279 277 279 284 286 290 290 288 289 292 288 289 289 299 304 298 300 302 300 298 302
258 255 253 252 250 249 247 244 243 241 239 249 258 264 266 264 256 260 263 268 266 267 268 273 272 268 273 277 278 279 282 285 286 284 286 288 286 289 290 296 295 295 298 299 298 297 300
257 254 252 250 249 248 245 243 243 243 242 248 257 260 265 266 269 259 261 262 261 266 266 267 267 273 275 269 274 275 279 280 279 283 278 285 286 290 290 293 293 290 295 302 301 301 296
256 254 251 249 247 247 246 245 244 241 235 253 256 265 267 265 267 260 257 255 263 267 269 268 268 272 271 270 278 279 280 282 280 277 277 280 283 288 291 297 294 291 295 298 302 303 303
256 253 251 249 247 246 246 245 243 240 236 252 256 261 262 263 262 265 267 262 261 263 266 270 268 267 266 282 284 283 281 279 277 276 280 277 280 283 292 295 294 304 317 319 311 310 309
256 253 251 249 248 247 246 246 244 243 238 248 256 255 260 261 261 265 267 268 267 264 263 263 265 268 280 275 274 271 274 275 273 273 268 274 274 281 286 287 294 306 319 319 314 312 318
254 252 250 248 247 247 246 246 244 241 238 242 249 251 259 264 256 262 265 270 265 267 268 267 266 267 267 264 266 267 266 272 272 274 267 271 272 275 286 289 295 315 327 329 323 306 317
252 250 249 247 246 245 245 245 243 240 237 243 253 243 249 258 262 262 254 255 265 265 267 267 260 259 259 254 263 267 266 271 268 270 267 264 271 273 282 289 301 320 323 322 312 320 342
249 249 247 247 246 244 244 243 242 239 235 234 248 243 235 249 248 261 251 243 248 247 253 260 261 256 258 252 260 265 268 271 274 273 267 266 273 279 285 293 300 327 320 314 333 346 342
203 206 213 236 245 244 243 241 240 238 233 231 249 243 239 243 248 254 250 242 248 255 254 258 257 257 254 254 258 273 274 271 272 266 276 270 279 284 290 307 321 321 323 335 340 340 341